Vorticity
nan nan nan nan nan nan nan nan nan nan nan nan nan nan nan nan nan nan nan nan nan nan nan nan nan nan nan nan nan nan nan nan nan nan nan nan nan nan nan nan nan nan nan nan
nan 11 7 8 5 4 3 9 8 11 9 4 13 5 9 12 11 12 6 11 11 9 12 9 8 8 6 5 6 6 5 6 5 6 9 8 10 10 9 8 9 7 9 nan
nan 8 10 6 3 7 11 10 7 12 6 2 9 10 13 9 10 8 6 6 13 14 8 7 8 7 6 6 7 8 7 6 7 6 4 8 9 8 9 9 8 8 9 nan
nan 11 10 8 8 7 7 9 13 11 6 9 4 10 11 10 9 6 10 7 7 11 10 7 8 8 6 5 7 8 7 5 8 7 7 9 8 7 8 9 9 9 7 nan
nan 10 10 10 6 8 5 10 16 4 1 7 4 11 10 13 8 9 6 7 6 13 13 8 8 8 6 6 7 8 6 4 8 7 6 8 7 7 10 10 10 7 8 nan
nan 6 8 11 10 6 12 14 12 10 6 4 11 6 8 15 10 7 6 5 4 13 13 9 8 8 7 6 7 8 7 4 6 8 7 7 8 7 8 9 8 8 8 nan
nan 8 11 10 10 10 12 11 11 8 10 11 14 6 13 6 11 15 11 4 4 11 13 10 7 7 9 8 6 8 8 5 3 7 8 7 10 11 8 7 7 7 7 nan
nan 9 11 9 11 10 9 8 7 8 9 14 7 5 19 17 17 17 13 13 12 6 11 12 8 7 8 7 7 6 7 7 4 6 6 7 8 9 10 9 8 8 8 nan
nan 9 11 10 9 4 9 14 7 3 5 16 5 7 13 21 17 18 12 12 17 11 10 10 8 7 8 9 8 6 7 6 6 5 6 7 7 9 9 9 7 9 8 nan
nan 12 6 9 11 13 13 3 6 13 15 5 7 12 8 7 4 13 14 18 18 12 11 8 9 8 9 9 9 9 8 7 6 6 6 6 7 8 8 9 9 8 8 nan
nan 7 8 12 9 7 8 8 11 12 9 8 9 9 12 9 12 17 13 10 12 13 15 17 15 9 7 11 10 10 9 8 8 6 7 6 6 8 8 7 8 9 10 nan
nan 7 16 3 6 13 10 10 9 5 7 9 10 5 17 18 13 11 19 12 12 15 11 17 20 12 9 11 9 9 9 9 9 8 8 8 5 6 7 7 8 8 10 nan
nan 12 8 9 13 17 12 12 9 5 15 13 3 6 16 19 18 7 7 2 9 17 18 28 24 13 9 9 10 9 9 8 8 9 8 9 8 6 7 6 7 7 9 nan
nan 12 13 13 7 4 6 12 14 12 3 11 7 9 3 12 13 2 5 6 5 9 13 25 23 25 20 13 15 11 8 9 9 9 8 8 8 7 6 8 8 7 6 nan
nan 8 10 10 11 10 7 6 11 16 12 14 16 12 7 16 10 10 6 7 8 3 7 11 12 14 20 14 12 17 17 12 9 8 9 8 9 8 8 7 8 9 8 nan
nan 12 11 9 9 10 6 5 20 20 19 15 14 5 20 18 7 9 9 9 4 6 8 6 7 8 9 9 9 16 19 15 13 10 8 8 9 10 9 8 8 8 8 nan
nan 13 10 10 8 8 2 15 25 11 21 23 12 10 3 6 10 10 8 8 9 10 5 7 9 8 8 10 9 8 14 21 17 11 10 10 10 10 10 10 9 8 8 nan
nan 11 11 10 11 15 6 6 10 3 3 15 18 13 12 9 2 6 9 9 8 7 9 10 8 8 10 11 11 11 11 12 23 21 11 11 10 9 9 10 9 8 10 nan
nan 9 12 14 11 7 5 4 6 -0 -1 7 13 13 9 -3 -1 3 9 9 9 8 8 7 10 11 9 7 9 12 11 10 11 22 23 14 10 10 9 9 9 8 8 nan
nan 12 10 8 12 10 6 3 9 8 0 5 9 9 12 12 5 5 7 8 8 6 7 8 11 11 7 8 13 13 11 9 7 9 11 19 22 14 9 9 9 9 9 nan
nan 11 11 10 11 7 1 10 20 14 7 7 12 11 16 17 12 10 9 7 9 8 9 9 6 8 8 10 11 11 10 8 9 10 11 11 19 21 13 9 10 10 9 nan
nan 11 7 10 8 -1 10 33 26 11 6 8 10 13 13 11 11 8 10 9 6 6 9 10 9 8 8 10 10 10 9 9 10 13 13 11 17 21 17 13 10 11 11 nan
nan 13 12 12 8 7 16 16 12 13 11 4 7 13 10 7 8 9 7 11 10 11 9 8 10 8 7 9 9 8 9 11 12 12 13 13 15 22 20 15 11 11 12 nan
nan 11 12 8 4 8 12 11 12 13 11 12 9 10 8 8 8 7 7 9 9 10 10 10 9 8 9 9 9 10 10 11 13 13 13 12 12 16 21 19 14 11 11 nan
nan 9 13 7 7 10 2 2 10 14 13 17 12 9 12 9 6 5 7 10 9 8 9 10 10 9 8 9 8 9 9 11 11 13 13 13 12 11 13 17 19 14 10 nan
nan nan nan nan nan nan nan nan nan nan nan nan nan nan nan nan nan nan nan nan nan nan nan nan nan nan nan nan nan nan nan nan nan nan nan nan nan nan nan nan nan nan nan nan
CAPE
0 0 0 0 0 0 0 0 72 58 211 32 6 2 1 0 0 0 78 0 0 0 0 0 0 0 24 63 14 184 144 82 520 417 703 321 463 830 923 929 917 586 1346 2131
0 0 0 0 0 0 0 1 66 125 143 23 9 2 0 0 37 18 126 258 14 0 0 0 0 37 33 0 94 380 190 130 446 178 664 25 667 1064 1069 507 335 1338 1501 1672
0 0 0 0 0 0 0 0 23 84 151 77 39 2 5 12 39 264 225 257 193 0 0 0 0 33 22 0 46 616 249 415 174 200 835 1148 1046 924 865 431 602 1131 1513 1576
0 0 0 0 0 0 0 0 7 145 55 23 42 9 64 4 4 85 154 238 76 116 0 0 0 27 20 0 91 634 788 508 230 487 624 792 1077 821 548 339 317 996 1475 1446
0 0 0 0 0 0 0 0 3 156 51 16 74 23 0 53 8 7 32 204 40 78 0 0 0 0 17 4 193 878 788 532 478 1227 1533 555 531 313 429 357 616 739 924 1700
0 0 0 0 0 0 0 0 0 22 10 0 0 7 0 63 15 33 1 44 177 118 46 1 0 0 3 12 261 1009 681 493 243 787 1043 1699 1480 822 706 581 682 699 919 1261
0 0 0 0 0 0 0 0 0 1 7 0 0 0 0 17 50 85 95 45 87 221 112 16 0 0 0 50 254 1037 574 494 372 500 864 1333 1290 1252 802 784 770 863 790 1111
0 0 0 0 0 0 0 0 0 0 0 0 0 0 0 0 63 173 159 141 245 268 196 30 3 0 5 71 250 917 927 616 652 587 804 1331 1513 1487 892 822 972 918 646 999
0 0 0 0 0 0 0 0 0 0 0 0 0 0 13 44 52 57 171 191 452 501 415 71 46 0 0 36 248 602 1194 951 880 767 864 1259 1517 1768 1446 1287 945 708 876 898
0 0 0 0 0 0 0 0 0 0 0 0 0 0 42 71 31 111 27 159 670 833 581 259 168 168 0 0 212 491 859 1078 996 747 921 1092 1351 1777 1236 1537 1312 1285 1447 1458
0 0 0 0 0 0 0 0 0 0 0 0 0 0 0 33 0 44 117 11 29 446 465 554 399 304 225 11 9 444 617 801 1131 828 1012 995 1113 1619 1521 1787 2200 1133 1169 1972
0 0 0 0 0 0 0 0 0 0 0 0 0 0 0 14 0 0 78 88 267 349 501 188 571 464 390 78 8 89 499 584 1122 941 1157 1065 1051 1069 1571 1355 1474 2017 1187 2023
0 0 0 0 0 0 0 0 0 0 0 0 0 0 0 0 130 436 637 840 942 853 1072 881 780 640 483 283 24 111 489 533 912 1028 1243 1214 1229 944 1024 1205 1205 1402 2048 1405
0 0 0 0 0 0 0 0 0 0 0 0 0 0 23 4 20 302 967 821 674 629 603 774 816 709 521 378 89 255 678 649 902 1278 1120 1421 1340 1339 966 860 828 1091 1419 1820
0 0 0 0 0 0 0 0 0 0 0 0 0 0 468 3 536 790 855 744 565 426 407 426 465 544 580 534 583 518 963 943 1110 1555 1315 1366 1487 1484 1383 1179 939 691 908 1591
0 0 0 0 0 0 0 0 0 2 0 178 610 1153 1117 1043 905 697 624 492 362 277 168 80 70 133 342 478 778 1235 730 1282 1371 1473 1657 1588 1696 1719 1709 1636 1427 1056 823 986
0 0 0 0 0 0 0 176 327 309 234 389 731 980 839 736 705 348 262 254 182 39 8 0 0 0 10 173 551 948 1410 1369 1443 1642 1673 1651 1740 1871 1862 1797 1554 1413 1274 989
0 0 0 0 0 2 58 66 298 243 150 296 564 385 434 332 248 105 50 88 49 3 0 0 0 0 0 5 11 214 862 1243 1677 1544 1637 1676 1517 1713 1753 1725 1557 1451 1490 1379
0 0 0 0 0 76 120 107 213 127 89 131 174 256 151 165 95 99 39 12 21 0 0 0 0 0 0 0 0 0 99 943 1083 1179 1424 1455 1550 1495 1834 1684 1574 1468 1379 1395
0 0 0 0 2 154 173 163 190 132 205 117 68 69 86 153 81 45 14 0 0 0 0 0 0 0 0 0 0 0 0 9 0 0 11 556 1475 1752 1632 1879 1710 1555 1470 1408
0 0 0 0 0 241 164 186 251 315 171 193 158 80 81 58 50 71 0 0 0 0 0 0 0 0 0 0 0 0 0 0 0 0 0 14 985 1717 1877 1790 1860 1751 1562 1482
0 0 66 0 43 51 341 459 302 178 142 246 99 99 49 16 12 0 0 0 0 0 0 0 0 0 0 0 0 0 0 0 0 0 0 42 616 1883 2032 2026 1923 1905 1808 1811
0 0 1 313 495 208 46 394 214 110 104 91 80 140 49 2 0 0 0 0 0 0 0 0 0 0 0 0 0 0 0 0 0 0 0 126 816 2132 1969 2216 2158 2177 2145 1991
0 0 33 3 0 0 0 0 15 65 37 88 60 56 121 29 0 0 0 0 0 0 0 0 0 0 0 0 0 0 0 0 0 0 3 264 570 741 2259 1933 2345 2280 2384 2515
3 0 0 0 0 0 0 0 0 0 0 0 22 3 203 39 0 0 0 0 0 0 0 0 0 0 0 0 0 0 0 0 0 0 1 3 52 752 1240 1910 2551 2463 2499 2445
0 0 3 8 1 0 0 0 0 0 0 0 0 0 75 99 26 0 0 0 0 0 0 0 0 0 0 0 0 0 0 0 0 1 4 2 6 158 440 455 767 1315 2028 2217